Falfurrias, TX

9:06 PM CDT on July 23, 2019 (GMT -0500)
Falfurrias

Weather History for KBKS - May, 2019

Change the Weather History Date:

Thursday, May 23, 2019

  Actual Average (WUND) Record (WUND)
Temperature  
Mean Temperature 88 °F -  
Max Temperature 97 °F - - (-1)
Min Temperature 79 °F - - (-1)
Cooling Degree Days 22    
Growing Degree Days 38 (Base 50)    
Moisture  
Dew Point 73 °F    
Average Humidity 66    
Maximum Humidity 81    
Minimum Humidity 40    
Precipitation  
Precipitation 0.00 in - - ()
Sea Level Pressure  
Sea Level Pressure 29.86 in    
Wind  
Wind Speed 13 mph (SE)    
Max Wind Speed 21 mph    
Max Gust Speed 30 mph    
Visibility 9 miles    
Events      
Averages and records for this station are not official NWS values.
T = Trace of Precipitation, MM = Missing Value Source: NWS Daily Summary

Daily Weather History Graph

Daily Weather History Graph

Search for Another Location

Airport or City:

Astronomy

May. 23, 2019 Rise Set
Actual Time 6:40 AM CDT 8:18 PM CDT
Civil Twilight 6:14 AM CDT 8:43 PM CDT
Nautical Twilight 5:44 AM CDT 9:14 PM CDT
Astronomical Twilight 5:11 AM CDT 9:47 PM CDT
Moon 12:00 AM CDT (5/23) 10:47 AM CDT (5/23)
Length of Visible Light 14h 28m
Length of Day
13h 37m
Waning Gibbous, 77% of the Moon is Illuminated
May 23
Waning Gibbous
May 26
Last Quarter
Jun 3
New
Jun 10
First Quarter
Jun 17
Full

Hourly Weather History & Observations

Time (CDT) Temp. Heat Index Dew Point Humidity Pressure Visibility Wind Dir Wind Speed Gust Speed Precip Events Conditions
12:15 AM 82.9 °F 89.4 °F 73.8 °F 74% 29.82 in 7.0 mi SE 10.4 mph - N/A   Overcast
12:35 AM 82.4 °F 88.7 °F 74.3 °F 76% 29.83 in 7.0 mi SE 9.2 mph - N/A   Overcast
12:55 AM 82.4 °F 88.7 °F 74.3 °F 76% 29.83 in 7.0 mi SE 10.4 mph 16.1 mph N/A   Overcast
1:15 AM 82.8 °F 89.5 °F 74.5 °F 76% 29.83 in 7.0 mi SE 8.1 mph - N/A   Overcast
1:35 AM 82.8 °F 89.5 °F 74.5 °F 76% 29.83 in - SE 13.8 mph - N/A   Unknown
1:55 AM 82.9 °F 89.7 °F 74.5 °F 75% 29.83 in 7.0 mi SE 8.1 mph 16.1 mph N/A   Overcast
2:15 AM 82.9 °F 89.7 °F 74.3 °F 75% 29.83 in 7.0 mi SE 12.7 mph 18.4 mph N/A   Overcast
2:35 AM 82.8 °F 89.2 °F 74.3 °F 75% 29.83 in 7.0 mi SE 11.5 mph 16.1 mph N/A   Overcast
2:55 AM 82.4 °F 88.2 °F 73.4 °F 74% 29.83 in 10.0 mi SE 11.5 mph 18.4 mph N/A   Mostly Cloudy
3:15 AM 82.4 °F 88.4 °F 73.8 °F 75% 29.83 in 10.0 mi SE 11.5 mph 18.4 mph N/A   Overcast
3:35 AM 82.0 °F 87.9 °F 73.8 °F 76% 29.83 in 7.0 mi SE 11.5 mph 17.3 mph N/A   Overcast
3:55 AM 81.0 °F 86.0 °F 73.4 °F 78% 29.83 in 7.0 mi SE 9.2 mph - N/A   Scattered Clouds
4:15 AM 80.8 °F 85.6 °F 73.4 °F 78% 29.83 in 7.0 mi SE 10.4 mph - N/A   Scattered Clouds
4:35 AM 80.2 °F 84.7 °F 73.4 °F 80% 29.83 in 7.0 mi SE 10.4 mph - N/A   Scattered Clouds
4:55 AM 80.1 °F 84.4 °F 73.4 °F 80% 29.84 in 7.0 mi SE 10.4 mph - N/A   Scattered Clouds
5:15 AM 80.1 °F 84.4 °F 73.4 °F 80% 29.85 in 7.0 mi SE 6.9 mph - N/A   Mostly Cloudy
5:35 AM 79.9 °F - 73.2 °F 80% 29.85 in 7.0 mi SE 9.2 mph - N/A   Mostly Cloudy
5:55 AM 79.9 °F - 73.2 °F 80% 29.85 in 10.0 mi SE 8.1 mph - N/A   Mostly Cloudy
6:15 AM 79.7 °F - 73.4 °F 81% 29.86 in 7.0 mi SE 6.9 mph - N/A   Mostly Cloudy
6:35 AM 79.3 °F - 73.0 °F 81% 29.87 in 7.0 mi SE 6.9 mph - N/A   Mostly Cloudy
6:55 AM 79.7 °F - 73.0 °F 80% 29.88 in 10.0 mi SE 9.2 mph - N/A   Overcast
7:15 AM 79.9 °F - 73.0 °F 80% 29.88 in 10.0 mi SE 8.1 mph - N/A   Overcast
7:35 AM 80.2 °F 84.7 °F 73.4 °F 80% 29.88 in 7.0 mi SE 9.2 mph - N/A   Overcast
7:55 AM 80.8 °F 85.6 °F 73.4 °F 78% 29.89 in 7.0 mi SE 9.2 mph 16.1 mph N/A   Overcast
8:15 AM 81.5 °F 86.7 °F 73.4 °F 76% 29.89 in 7.0 mi SE 11.5 mph - N/A   Scattered Clouds
8:35 AM 82.6 °F 88.6 °F 73.6 °F 74% 29.89 in 7.0 mi SE 15.0 mph 20.7 mph N/A   Scattered Clouds
8:55 AM 82.8 °F 89.0 °F 73.6 °F 74% 29.90 in 10.0 mi SE 13.8 mph 19.6 mph N/A   Overcast
9:15 AM 84.2 °F 90.6 °F 73.2 °F 69% 29.90 in 7.0 mi SSE 16.1 mph 20.7 mph N/A   Mostly Cloudy
9:35 AM 84.9 °F 91.8 °F 73.2 °F 68% 29.90 in 10.0 mi SSE 12.7 mph 23.0 mph N/A   Mostly Cloudy
9:55 AM 86.7 °F 93.7 °F 72.7 °F 63% 29.90 in 10.0 mi SE 20.7 mph 27.6 mph N/A   Mostly Cloudy
10:15 AM 87.3 °F 93.6 °F 71.6 °F 60% 29.90 in 10.0 mi SE 17.3 mph 26.5 mph N/A   Scattered Clouds
10:35 AM 88.3 °F 95.0 °F 71.8 °F 58% 29.89 in 10.0 mi SSE 17.3 mph 25.3 mph N/A   Scattered Clouds
10:55 AM 89.1 °F 95.5 °F 71.4 °F 56% 29.89 in 10.0 mi SSE 17.3 mph 23.0 mph N/A   Scattered Clouds
11:15 AM 90.7 °F 96.4 °F 70.2 °F 51% 29.88 in 10.0 mi SSE 17.3 mph 26.5 mph N/A   Scattered Clouds
11:35 AM 91.9 °F 97.9 °F 70.5 °F 49% 29.88 in 10.0 mi SE 13.8 mph 29.9 mph N/A   Clear
11:55 AM 93.0 °F 98.4 °F 69.4 °F 46% 29.88 in 10.0 mi SE 19.6 mph 26.5 mph N/A   Scattered Clouds
12:15 PM 93.6 °F 98.4 °F 68.9 °F 44% 29.87 in 10.0 mi SE 20.7 mph 24.2 mph N/A   Scattered Clouds
12:35 PM 94.3 °F 99.3 °F 68.4 °F 43% 29.87 in 10.0 mi SSE 19.6 mph 27.6 mph N/A   Clear
12:55 PM 95.2 °F 100.5 °F 68.7 °F 42% 29.87 in 10.0 mi SSE 17.3 mph 23.0 mph N/A   Scattered Clouds
1:15 PM 95.2 °F 100.5 °F 68.9 °F 42% 29.86 in 10.0 mi SE 15.0 mph 21.9 mph N/A   Scattered Clouds
1:35 PM 96.1 °F 101.0 °F 67.8 °F 40% 29.85 in 10.0 mi SE 12.7 mph 23.0 mph N/A   Scattered Clouds
1:55 PM 95.9 °F 100.7 °F 68.4 °F 40% 29.84 in 10.0 mi SE 16.1 mph 20.7 mph N/A   Scattered Clouds
2:15 PM 96.1 °F 103.5 °F 71.2 °F 44% 29.84 in 10.0 mi SE 16.1 mph 21.9 mph N/A   Scattered Clouds
2:35 PM 95.4 °F 104.7 °F 72.7 °F 48% 29.83 in 7.0 mi ESE 18.4 mph 23.0 mph N/A   Mostly Cloudy
2:55 PM 96.4 °F 106.5 °F 73.2 °F 47% 29.83 in 10.0 mi ESE 15.0 mph 29.9 mph N/A   Mostly Cloudy
3:15 PM 95.2 °F 106.4 °F 74.3 °F 51% 29.83 in 10.0 mi ESE 16.1 mph 25.3 mph N/A   Mostly Cloudy
3:35 PM 94.6 °F 105.8 °F 74.5 °F 52% 29.82 in 10.0 mi ESE 18.4 mph 23.0 mph N/A   Scattered Clouds
3:55 PM 94.1 °F 104.5 °F 74.1 °F 52% 29.82 in 10.0 mi ESE 18.4 mph 28.8 mph N/A   Scattered Clouds
4:15 PM 94.1 °F 104.5 °F 74.3 °F 52% 29.82 in 10.0 mi East 20.7 mph 28.8 mph N/A   Scattered Clouds
4:35 PM 93.9 °F 105.4 °F 75.0 °F 54% 29.81 in 10.0 mi ESE 18.4 mph 26.5 mph N/A   Scattered Clouds
4:55 PM 93.6 °F 104.5 °F 74.8 °F 54% 29.81 in 10.0 mi ESE 19.6 mph 26.5 mph N/A   Scattered Clouds
5:15 PM 93.7 °F 105.0 °F 75.0 °F 54% 29.81 in 10.0 mi ESE 18.4 mph 24.2 mph N/A   Scattered Clouds
5:35 PM 92.7 °F 103.7 °F 74.7 °F 56% 29.81 in 10.0 mi ESE 19.6 mph 28.8 mph N/A   Scattered Clouds
5:55 PM 91.4 °F 101.9 °F 74.8 °F 58% 29.82 in 10.0 mi ESE 18.4 mph 28.8 mph N/A   Scattered Clouds
6:15 PM 90.7 °F 101.3 °F 74.8 °F 60% 29.82 in 10.0 mi ESE 20.7 mph 26.5 mph N/A   Scattered Clouds
6:35 PM 90.0 °F 100.2 °F 74.7 °F 61% 29.83 in 7.0 mi ESE 17.3 mph 24.2 mph N/A   Scattered Clouds
6:55 PM 88.9 °F 98.6 °F 75.0 °F 63% 29.82 in 7.0 mi ESE 15.0 mph 24.2 mph N/A   Scattered Clouds
7:15 PM 87.8 °F 97.6 °F 75.2 °F 66% 29.83 in 10.0 mi ESE 18.4 mph 26.5 mph N/A   Scattered Clouds
7:35 PM 87.1 °F 96.8 °F 75.2 °F 68% 29.83 in 10.0 mi ESE 16.1 mph 24.2 mph N/A   Scattered Clouds
7:55 PM 85.8 °F 95.1 °F 75.6 °F 71% 29.84 in 10.0 mi ESE 13.8 mph 19.6 mph N/A   Mostly Cloudy
8:15 PM 85.1 °F 93.7 °F 75.0 °F 72% 29.85 in 10.0 mi ESE 12.7 mph 25.3 mph N/A   Mostly Cloudy
8:35 PM 85.3 °F 93.4 °F 74.7 °F 70% 29.85 in 10.0 mi SE 13.8 mph 24.2 mph N/A   Overcast
8:55 PM 84.7 °F 92.8 °F 74.7 °F 72% 29.86 in 10.0 mi SE 12.7 mph 21.9 mph N/A   Overcast
9:15 PM 84.4 °F 92.4 °F 74.8 °F 73% 29.87 in 10.0 mi ESE 11.5 mph 18.4 mph N/A   Overcast
9:35 PM 84.2 °F 92.3 °F 75.2 °F 74% 29.88 in 10.0 mi ESE 13.8 mph 23.0 mph N/A   Overcast
9:55 PM 83.7 °F 91.7 °F 75.2 °F 76% 29.88 in 10.0 mi ESE 16.1 mph 21.9 mph N/A   Overcast
10:15 PM 83.5 °F 90.9 °F 74.8 °F 75% 29.90 in 10.0 mi SE 13.8 mph 18.4 mph N/A   Overcast
10:35 PM 83.3 °F 90.8 °F 74.8 °F 76% 29.91 in 10.0 mi SE 11.5 mph - N/A   Overcast
10:55 PM 83.1 °F 90.4 °F 74.7 °F 76% 29.91 in 10.0 mi SE 16.1 mph 21.9 mph N/A   Overcast
11:15 PM 83.3 °F 90.2 °F 74.3 °F 74% 29.93 in 10.0 mi SE 10.4 mph 20.7 mph N/A   Overcast
11:35 PM 82.9 °F 89.7 °F 74.1 °F 75% 29.93 in 10.0 mi SE 8.1 mph 20.7 mph N/A   Overcast
11:55 PM 82.8 °F 89.0 °F 73.8 °F 74% 29.93 in 10.0 mi SE 12.7 mph 19.6 mph N/A   Overcast